timestamp,surface_pressure_avg,surface_temp_avg,battery_voltage,lat,long
2020-05-03 00:09:01+00:00,235.5914,3.66,12.65,47.84626,-54.09684
2020-05-03 00:19:01+00:00,233.4764,3.63,12.65,47.84626,-54.09684
2020-05-03 00:29:01+00:00,233.6081,3.61,12.65,47.84626,-54.09684
2020-05-03 00:39:01+00:00,233.4114,3.63,12.65,47.84626,-54.09684
2020-05-03 00:49:01+00:00,230.7014,3.67,12.65,47.84626,-54.09684
2020-05-03 00:59:01+00:00,228.8398,3.7,12.65,47.84626,-54.09684
2020-05-03 01:09:01+00:00,227.4965,3.7,12.65,47.84626,-54.09684
2020-05-03 01:19:01+00:00,222.8615,3.7,12.65,47.84626,-54.09684
2020-05-03 01:29:01+00:00,220.4564,3.7,12.65,47.84626,-54.09684
2020-05-03 01:39:01+00:00,221.0265,3.7,12.65,47.84626,-54.09684
2020-05-03 01:49:01+00:00,217.3931,3.77,12.65,47.84626,-54.09684
2020-05-03 01:59:01+00:00,216.0231,3.98,12.65,47.84626,-54.09684
2020-05-03 02:09:01+00:00,221.2298,4.11,12.65,47.84626,-54.09684
2020-05-03 02:19:01+00:00,224.8564,4.1,12.65,47.84626,-54.09684
2020-05-03 02:29:01+00:00,222.4214,4.03,12.65,47.84626,-54.09684
2020-05-03 02:39:01+00:00,223.3281,4.0,12.65,47.84626,-54.09684
2020-05-03 02:49:01+00:00,228.923,3.97,12.65,47.84626,-54.09684
2020-05-03 02:59:01+00:00,233.1014,3.93,12.65,47.84626,-54.09684
2020-05-03 03:09:01+00:00,234.4714,3.92,12.65,47.84626,-54.09684
2020-05-03 03:19:01+00:00,237.4415,3.94,12.57,47.84626,-54.09684
2020-05-03 03:29:01+00:00,242.8015,3.9,12.57,47.84626,-54.09684
2020-05-03 03:39:01+00:00,246.4564,3.9,12.57,47.84626,-54.09684
2020-05-03 03:49:01+00:00,244.5814,3.89,12.57,47.84626,-54.09684
2020-05-03 03:59:01+00:00,248.3647,3.89,12.57,47.84626,-54.09684
2020-05-03 04:09:01+00:00,258.7047,3.82,12.57,47.84626,-54.09684
2020-05-03 04:19:01+00:00,266.8997,3.85,12.57,47.84626,-54.09684
2020-05-03 04:29:01+00:00,268.5431,3.9,12.57,47.84626,-54.09684
2020-05-03 04:39:01+00:00,268.3764,3.9,12.57,47.84626,-54.09684
2020-05-03 04:49:01+00:00,272.5064,3.8,12.57,47.84626,-54.09684
2020-05-03 04:59:01+00:00,275.1797,3.8,12.57,47.84626,-54.09684
2020-05-03 05:09:01+00:00,277.8547,3.8,12.57,47.84626,-54.09684
2020-05-03 05:19:01+00:00,281.4647,3.8,12.57,47.84626,-54.09684
2020-05-03 05:29:01+00:00,291.1964,3.8,12.57,47.84626,-54.09684
2020-05-03 05:39:01+00:00,297.383,3.8,12.57,47.84626,-54.09684
2020-05-03 05:49:01+00:00,300.4964,3.8,12.57,47.84626,-54.09684
2020-05-03 05:59:01+00:00,308.5164,3.8,12.57,47.84626,-54.09684
2020-05-03 06:09:01+00:00,319.153,3.78,12.57,47.84626,-54.09684
2020-05-03 06:19:01+00:00,322.0179,3.78,12.57,47.84626,-54.09684
2020-05-03 06:29:01+00:00,330.1880000000001,3.79,12.57,47.84626,-54.09684
2020-05-03 06:39:01+00:00,336.108,3.7,12.57,47.84626,-54.09684
2020-05-03 06:49:01+00:00,337.5497,3.7,12.57,47.84626,-54.09684
2020-05-03 06:59:01+00:00,335.9263,3.7,12.57,47.84626,-54.09684
2020-05-03 07:09:01+00:00,340.4563,3.7,12.57,47.84626,-54.09684
2020-05-03 07:19:01+00:00,342.8013,3.7,12.57,47.84626,-54.09684
2020-05-03 07:29:01+00:00,342.0812,3.71,12.57,47.84626,-54.09684
2020-05-03 07:39:01+00:00,345.533,3.7,12.57,47.84626,-54.09684
2020-05-03 07:49:01+00:00,350.5363,3.7,12.57,47.84626,-54.09684
2020-05-03 07:59:01+00:00,351.5446,3.75,12.57,47.84626,-54.09684
2020-05-03 08:09:01+00:00,344.68800000000016,3.8,12.57,47.84626,-54.09684
2020-05-03 08:19:01+00:00,339.9763,3.8,12.57,47.84626,-54.09684
2020-05-03 08:29:01+00:00,344.3863,3.8,12.57,47.84626,-54.09684
2020-05-03 08:39:01+00:00,341.4813,3.92,12.57,47.84626,-54.09684
2020-05-03 08:49:01+00:00,335.5512,4.0,12.57,47.84626,-54.09684
2020-05-03 08:59:01+00:00,334.6946,4.0,12.57,47.84626,-54.09684
2020-05-03 09:09:01+00:00,338.4547,4.0,12.57,47.84626,-54.09684
2020-05-03 09:19:01+00:00,339.3013,3.98,12.57,47.84626,-54.09684
2020-05-03 09:29:01+00:00,330.8914,3.9,12.57,47.84626,-54.09684
2020-05-03 09:39:01+00:00,326.2913,3.9,12.57,47.84626,-54.09684
2020-05-03 09:49:01+00:00,326.9363,3.88,12.57,47.84626,-54.09684
2020-05-03 09:59:01+00:00,322.158,3.9,12.57,47.84626,-54.09684
2020-05-03 10:09:01+00:00,309.9713,3.9,12.57,47.84626,-54.09684
2020-05-03 10:19:01+00:00,304.438,3.9,12.57,47.84626,-54.09684
2020-05-03 10:29:01+00:00,300.7697,3.9,12.57,47.84626,-54.09684
2020-05-03 10:39:01+00:00,290.3747,3.9,12.57,47.84626,-54.09684
2020-05-03 10:49:01+00:00,278.9197,3.9,12.57,47.84626,-54.09684
2020-05-03 10:59:01+00:00,275.9181,3.9,12.57,47.84626,-54.09684
2020-05-03 11:09:01+00:00,272.1631,3.9,12.57,47.84626,-54.09684
2020-05-03 11:19:01+00:00,263.5647,3.9,12.57,47.84626,-54.09684
2020-05-03 11:29:01+00:00,253.1731,3.9,12.57,47.84626,-54.09684
2020-05-03 11:39:01+00:00,250.5131,3.9,12.57,47.84626,-54.09684
2020-05-03 11:49:01+00:00,248.3214,3.9,12.57,47.84626,-54.09684
2020-05-03 11:59:01+00:00,241.5714,3.9,12.57,47.84626,-54.09684
2020-05-03 12:09:01+00:00,234.1531,3.9,12.57,47.84626,-54.09684
2020-05-03 12:19:01+00:00,233.3281,3.9,12.65,47.84626,-54.09684
2020-05-03 12:29:01+00:00,232.0481,3.9,12.65,47.84626,-54.09684
2020-05-03 12:39:01+00:00,226.0731,3.9,12.65,47.84626,-54.09684
2020-05-03 12:49:01+00:00,225.3347,3.9,12.65,47.84626,-54.09684
2020-05-03 12:59:01+00:00,225.3881,3.9,12.65,47.84626,-54.09684
2020-05-03 13:09:01+00:00,221.1648,3.9,12.65,47.84626,-54.09684
2020-05-03 13:19:01+00:00,219.9647,3.95,12.73,47.84626,-54.09684
2020-05-03 13:29:01+00:00,217.7848,3.97,12.73,47.84626,-54.09684
2020-05-03 13:39:01+00:00,214.5214,4.0,12.73,47.84626,-54.09684
2020-05-03 13:49:01+00:00,213.9931,4.0,12.73,47.84626,-54.09684
2020-05-03 13:59:01+00:00,211.1848,4.0,12.73,47.84626,-54.09684
2020-05-03 14:09:01+00:00,206.3632,4.0,12.73,47.84626,-54.09684
2020-05-03 14:19:01+00:00,206.8031,4.0,12.97,47.84626,-54.09684
2020-05-03 14:29:01+00:00,207.3948,4.0,12.97,47.84626,-54.09684
2020-05-03 14:39:01+00:00,203.6715,4.0,12.97,47.84626,-54.09684
2020-05-03 14:49:01+00:00,205.3831,4.0,12.97,47.84626,-54.09684
2020-05-03 14:59:01+00:00,211.6798,4.0,12.97,47.84626,-54.09684
2020-05-03 15:09:01+00:00,210.8814,4.0,12.97,47.84626,-54.09684
2020-05-03 15:19:01+00:00,205.8765,4.0,13.13,47.84626,-54.09684
2020-05-03 15:29:01+00:00,207.4798,4.0,13.13,47.84626,-54.09684
2020-05-03 15:39:01+00:00,213.6398,4.0,13.13,47.84626,-54.09684
2020-05-03 15:49:01+00:00,215.7398,4.0,13.13,47.84626,-54.09684
2020-05-03 15:59:01+00:00,217.3698,4.0,13.13,47.84626,-54.09684
2020-05-03 16:09:01+00:00,223.4147,4.0,13.13,47.84626,-54.09684
2020-05-03 16:19:01+00:00,233.0114,4.0,13.13,47.84626,-54.09684
2020-05-03 16:29:01+00:00,237.2614,3.97,13.13,47.84626,-54.09684
2020-05-03 16:39:01+00:00,237.9698,3.94,13.13,47.84626,-54.09684
2020-05-03 16:49:01+00:00,244.7331,3.9,13.13,47.84626,-54.09684
2020-05-03 16:59:01+00:00,251.0481,3.9,13.13,47.84626,-54.09684
2020-05-03 17:09:01+00:00,254.7247,3.88,13.13,47.84626,-54.09684
2020-05-03 17:19:01+00:00,261.2514,3.9,13.05,47.84626,-54.09684
2020-05-03 17:29:01+00:00,269.0414,3.8,13.05,47.84626,-54.09684
2020-05-03 17:39:01+00:00,267.9614,3.8,13.05,47.84626,-54.09684
2020-05-03 17:49:01+00:00,273.473,3.7,13.05,47.84626,-54.09684
2020-05-03 17:59:01+00:00,285.9964,3.5,13.05,47.84626,-54.09684
2020-05-03 18:09:01+00:00,293.5563,3.6,13.05,47.84626,-54.09684
2020-05-03 18:19:01+00:00,294.2547,3.65,13.13,47.84626,-54.09684
2020-05-03 18:29:01+00:00,301.873,3.69,13.13,47.84626,-54.09684
2020-05-03 18:39:01+00:00,308.403,3.65,13.13,47.84626,-54.09684
2020-05-03 18:49:01+00:00,310.4047,3.6,13.13,47.84626,-54.09684
2020-05-03 18:59:01+00:00,314.0114,3.5,13.13,47.84626,-54.09684
2020-05-03 19:09:01+00:00,325.6396,3.57,13.13,47.84626,-54.09684
2020-05-03 19:19:01+00:00,330.8979,3.5,13.13,47.84626,-54.09684
2020-05-03 19:29:01+00:00,328.4530000000001,3.5,13.13,47.84626,-54.09684
2020-05-03 19:39:01+00:00,330.55800000000005,3.7,13.13,47.84626,-54.09684
2020-05-03 19:49:01+00:00,342.408,3.7,13.13,47.84626,-54.09684
2020-05-03 19:59:01+00:00,342.5197,3.46,13.13,47.84626,-54.09684
2020-05-03 20:09:01+00:00,335.6064,3.3,13.13,47.84626,-54.09684
2020-05-03 20:19:01+00:00,340.233,3.3,12.97,47.84626,-54.09684
2020-05-03 20:29:01+00:00,348.478,3.1,12.97,47.84626,-54.09684
2020-05-03 20:39:01+00:00,342.8413,3.0,12.97,47.84626,-54.09684
2020-05-03 20:49:01+00:00,335.9131,3.05,12.97,47.84626,-54.09684
2020-05-03 20:59:01+00:00,338.3213,3.1,12.97,47.84626,-54.09684
2020-05-03 21:09:01+00:00,338.028,3.02,12.97,47.84626,-54.09684
2020-05-03 21:19:01+00:00,326.2664,3.05,12.81,47.84626,-54.09684
2020-05-03 21:29:01+00:00,324.4647,3.09,12.81,47.84626,-54.09684
2020-05-03 21:39:01+00:00,325.9547,3.07,12.81,47.84626,-54.09684
2020-05-03 21:49:01+00:00,320.833,3.0,12.81,47.84626,-54.09684
2020-05-03 21:59:01+00:00,311.9563,3.0,12.81,47.84626,-54.09684
2020-05-03 22:09:01+00:00,311.9664,3.0,12.81,47.84626,-54.09684
2020-05-03 22:19:01+00:00,309.6913,3.0,12.73,47.84626,-54.09684
2020-05-03 22:29:01+00:00,302.1163,2.9,12.73,47.84626,-54.09684
2020-05-03 22:39:01+00:00,300.348,2.98,12.73,47.84626,-54.09684
2020-05-03 22:49:01+00:00,296.3813,3.1,12.73,47.84626,-54.09684
2020-05-03 22:59:01+00:00,288.9197,3.27,12.73,47.84626,-54.09684
2020-05-03 23:09:01+00:00,283.7847,3.3,12.73,47.84626,-54.09684
2020-05-03 23:19:01+00:00,281.1331,3.2,12.65,47.84626,-54.09684
2020-05-03 23:29:01+00:00,272.6497,3.3,12.65,47.84626,-54.09684
2020-05-03 23:39:01+00:00,263.9047,3.38,12.65,47.84626,-54.09684
2020-05-03 23:49:01+00:00,257.9365,3.47,12.65,47.84626,-54.09684
2020-05-03 23:59:01+00:00,252.6297,3.4,12.65,47.84626,-54.09684
